When you browse on this site, cookies collect data to enhance your experience and personalize the content and advertising you see.
Visit our Privacy Policy to learn more. By continuing to use the site, you agree to this use of cookies and data.
  • In Portugal
  • List of Countries
  • For 7 days
  • Water Temperature
  • Weather Map
  • Weather Widgets
  • user-avatar
    Login

    Hourly Weather Petrikovo

    Today, 24 January, Friday

    Time Temperature Precipitation Wind Pressure Humidity
    00:00 -5°C° 0.1 mm 3 mps 738 mmHg 81%
    01:00 -4°C° 0.1 mm 4 mps 737 mmHg 86%
    02:00 -4°C° 0 mm 4 mps 736 mmHg 92%
    03:00 -4°C° 0.1 mm 4 mps 735 mmHg 92%
    04:00 -4°C° 0.1 mm 4 mps 734 mmHg 92%
    05:00 -5°C° 0.1 mm 5 mps 733 mmHg 92%
    06:00 -3°C° 0.5 mm 4 mps 733 mmHg 93%
    07:00 -3°C° 0.5 mm 4 mps 732 mmHg 95%
    08:00 -2°C° 0.5 mm 4 mps 731 mmHg 96%
    09:00 -2°C° 0.1 mm 4 mps 731 mmHg 95%
    10:00 -1°C° 0.1 mm 5 mps 731 mmHg 93%
    11:00 0°C° 0.1 mm 5 mps 730 mmHg 92%
    12:00 0°C° 0.1 mm 5 mps 730 mmHg 91%
    13:00 0°C° 0.1 mm 5 mps 729 mmHg 91%
    14:00 +1°C° 0.1 mm 5 mps 729 mmHg 91%
    15:00 0°C° 0.1 mm 5 mps 729 mmHg 92%
    16:00 0°C° 0.1 mm 5 mps 729 mmHg 92%
    17:00 0°C° 0.1 mm 4 mps 729 mmHg 93%
    18:00 0°C° 0 mm 4 mps 729 mmHg 93%
    19:00 0°C° 0 mm 3 mps 729 mmHg 94%
    20:00 +1°C° 0 mm 2 mps 729 mmHg 95%
    21:00 0°C° 0.7 mm 3 mps 729 mmHg 95%
    22:00 0°C° 0.7 mm 3 mps 729 mmHg 95%
    23:00 -1°C° 0.7 mm 4 mps 729 mmHg 95%

    Tomorrow, 25 January, Saturday

    Time Temperature Precipitation Wind Pressure Humidity
    00:00 -1°C° 0.1 mm 4 mps 729 mmHg 94%
    01:00 0°C° 0.1 mm 3 mps 729 mmHg 93%
    02:00 -1°C° 0.1 mm 3 mps 729 mmHg 92%
    03:00 -1°C° 0 mm 3 mps 728 mmHg 91%
    04:00 -1°C° 0 mm 4 mps 728 mmHg 90%
    05:00 -1°C° 0 mm 4 mps 728 mmHg 89%
    06:00 -1°C° 0 mm 4 mps 727 mmHg 87%
    07:00 -1°C° 0 mm 5 mps 727 mmHg 84%
    08:00 -1°C° 0 mm 5 mps 727 mmHg 82%
    09:00 -2°C° 0.1 mm 6 mps 727 mmHg 79%
    10:00 -2°C° 0.1 mm 6 mps 726 mmHg 76%
    11:00 -2°C° 0.1 mm 7 mps 726 mmHg 73%
    12:00 -2°C° 0.2 mm 7 mps 727 mmHg 70%
    13:00 -2°C° 0.2 mm 7 mps 727 mmHg 66%
    14:00 -3°C° 0.2 mm 7 mps 727 mmHg 63%
    15:00 -3°C° 0 mm 6 mps 728 mmHg 66%
    16:00 -4°C° 0 mm 6 mps 728 mmHg 69%
    17:00 -4°C° 0 mm 6 mps 729 mmHg 73%
    18:00 -5°C° 0 mm 6 mps 729 mmHg 74%
    19:00 -6°C° 0 mm 7 mps 730 mmHg 75%
    20:00 -6°C° 0 mm 7 mps 730 mmHg 76%
    21:00 -6°C° 0 mm 7 mps 731 mmHg 76%
    22:00 -5°C° 0 mm 6 mps 732 mmHg 76%
    23:00 -5°C° 0 mm 6 mps 733 mmHg 76%

    Day after tomorrow, 26 January, Sunday

    Time Temperature Precipitation Wind Pressure Humidity
    00:00 -5°C° 0 mm 6 mps 734 mmHg 77%
    01:00 -5°C° 0 mm 5 mps 734 mmHg 77%
    02:00 -5°C° 0 mm 5 mps 735 mmHg 77%
    03:00 -4°C° 0 mm 4 mps 735 mmHg 79%
    04:00 -5°C° 0 mm 4 mps 736 mmHg 80%
    05:00 -5°C° 0 mm 4 mps 736 mmHg 82%
    06:00 -5°C° 0 mm 3 mps 737 mmHg 82%
    07:00 -5°C° 0 mm 3 mps 737 mmHg 81%
    08:00 -5°C° 0 mm 3 mps 737 mmHg 81%
    09:00 -4°C° 0 mm 3 mps 737 mmHg 79%
    10:00 -4°C° 0 mm 3 mps 737 mmHg 77%
    11:00 -2°C° 0 mm 3 mps 737 mmHg 75%
    12:00 -3°C° 0.1 mm 4 mps 736 mmHg 80%
    13:00 -3°C° 0.1 mm 4 mps 736 mmHg 85%
    14:00 -2°C° 0.1 mm 5 mps 735 mmHg 91%
    15:00 -1°C° 0.4 mm 5 mps 735 mmHg 92%
    16:00 0°C° 0.4 mm 5 mps 735 mmHg 94%
    17:00 0°C° 0.4 mm 5 mps 734 mmHg 95%
    18:00 +1°C° 0.1 mm 5 mps 734 mmHg 94%
    19:00 +1°C° 0.1 mm 5 mps 735 mmHg 92%
    20:00 +1°C° 0.1 mm 5 mps 735 mmHg 91%
    21:00 +1°C° 0 mm 5 mps 735 mmHg 91%
    22:00 +1°C° 0 mm 5 mps 735 mmHg 91%
    23:00 +1°C° 0 mm 5 mps 735 mmHg 91%

    27 January, Monday

    Time Temperature Precipitation Wind Pressure Humidity
    00:00 +1°C° 0 mm 5 mps 736 mmHg 92%
    01:00 +1°C° 0 mm 4 mps 736 mmHg 92%
    02:00 +1°C° 0 mm 4 mps 736 mmHg 93%
    03:00 +1°C° 0.1 mm 4 mps 736 mmHg 93%
    04:00 +1°C° 0.1 mm 4 mps 736 mmHg 94%
    05:00 0°C° 0.1 mm 4 mps 736 mmHg 94%
    06:00 +1°C° 0.2 mm 3 mps 736 mmHg 95%
    07:00 +1°C° 0.2 mm 3 mps 737 mmHg 96%
    08:00 +1°C° 0.2 mm 3 mps 737 mmHg 97%
    09:00 +1°C° 0.1 mm 3 mps 737 mmHg 97%
    10:00 +1°C° 0.1 mm 3 mps 737 mmHg 97%
    11:00 +2°C° 0.1 mm 2 mps 738 mmHg 97%
    12:00 +2°C° 0.1 mm 2 mps 738 mmHg 97%
    13:00 +2°C° 0.1 mm 2 mps 738 mmHg 98%
    14:00 +2°C° 0.1 mm 2 mps 737 mmHg 98%
    15:00 +2°C° 0.1 mm 2 mps 738 mmHg 98%
    16:00 +2°C° 0.1 mm 2 mps 738 mmHg 97%
    17:00 +2°C° 0.1 mm 2 mps 738 mmHg 97%
    18:00 +2°C° 0.1 mm 2 mps 738 mmHg 97%
    19:00 +2°C° 0.1 mm 2 mps 738 mmHg 97%
    20:00 +1°C° 0.1 mm 2 mps 738 mmHg 97%
    21:00 +1°C° 0.1 mm 2 mps 738 mmHg 97%
    22:00 +1°C° 0.1 mm 2 mps 738 mmHg 98%
    23:00 +1°C° 0.1 mm 2 mps 738 mmHg 98%

    28 January, Tuesday

    Time Temperature Precipitation Wind Pressure Humidity
    00:00 +1°C° 0.1 mm 2 mps 738 mmHg 98%
    01:00 +1°C° 0.1 mm 2 mps 738 mmHg 98%
    02:00 +1°C° 0.1 mm 2 mps 738 mmHg 98%
    03:00 +1°C° 0.1 mm 2 mps 738 mmHg 98%
    04:00 +1°C° 0.1 mm 2 mps 738 mmHg 98%
    05:00 +1°C° 0.1 mm 2 mps 738 mmHg 98%
    06:00 +1°C° 0 mm 2 mps 738 mmHg 98%
    07:00 +2°C° 0 mm 1 mps 738 mmHg 98%
    08:00 +2°C° 0 mm 1 mps 738 mmHg 98%
    09:00 +2°C° 0 mm 1 mps 738 mmHg 98%
    10:00 +2°C° 0 mm 1 mps 738 mmHg 98%
    11:00 +2°C° 0 mm 1 mps 738 mmHg 97%
    12:00 +2°C° 0 mm 1 mps 738 mmHg 97%
    13:00 +2°C° 0 mm 1 mps 738 mmHg 97%
    14:00 +1°C° 0 mm 2 mps 738 mmHg 97%
    15:00 +1°C° 0 mm 2 mps 738 mmHg 97%
    16:00 +1°C° 0 mm 2 mps 738 mmHg 96%
    17:00 -1°C° 0 mm 2 mps 738 mmHg 96%
    18:00 -1°C° 0 mm 2 mps 738 mmHg 96%
    19:00 -1°C° 0 mm 2 mps 738 mmHg 96%
    20:00 -1°C° 0 mm 2 mps 738 mmHg 96%
    21:00 -1°C° 0 mm 3 mps 738 mmHg 96%
    22:00 -1°C° 0 mm 3 mps 738 mmHg 96%
    23:00 -1°C° 0 mm 3 mps 738 mmHg 96%

    29 January, Wednesday

    Time Temperature Precipitation Wind Pressure Humidity
    00:00 -1°C° 0 mm 3 mps 737 mmHg 96%
    01:00 -1°C° 0 mm 3 mps 737 mmHg 96%
    02:00 -1°C° 0 mm 3 mps 737 mmHg 96%
    03:00 -1°C° 0.1 mm 3 mps 737 mmHg 96%
    04:00 0°C° 0.1 mm 3 mps 736 mmHg 96%
    05:00 0°C° 0.1 mm 3 mps 736 mmHg 97%
    06:00 0°C° 0 mm 3 mps 736 mmHg 95%
    07:00 -1°C° 0.1 mm 4 mps 736 mmHg 94%
    08:00 -1°C° 0.1 mm 4 mps 735 mmHg 92%
    09:00 -1°C° 0.1 mm 4 mps 735 mmHg 94%
    10:00 -1°C° 0.1 mm 4 mps 735 mmHg 95%
    11:00 -1°C° 0.1 mm 4 mps 735 mmHg 96%
    12:00 -1°C° 0.1 mm 4 mps 735 mmHg 96%
    13:00 -1°C° 0.1 mm 4 mps 734 mmHg 96%
    14:00 -1°C° 0.1 mm 5 mps 734 mmHg 95%
    15:00 -1°C° 0 mm 5 mps 734 mmHg 95%
    16:00 -1°C° 0 mm 5 mps 734 mmHg 95%
    17:00 -1°C° 0 mm 5 mps 733 mmHg 95%
    18:00 -1°C° 0.1 mm 5 mps 733 mmHg 96%
    19:00 -1°C° 0.1 mm 5 mps 733 mmHg 96%
    20:00 -1°C° 0.1 mm 4 mps 733 mmHg 96%
    21:00 -1°C° 0.1 mm 5 mps 732 mmHg 95%
    22:00 -1°C° 0.1 mm 5 mps 732 mmHg 95%
    23:00 -1°C° 0.1 mm 5 mps 732 mmHg 94%
    Show more